Date,TemperatureHighF,TemperatureAvgF,TemperatureLowF,DewpointHighF,DewpointAvgF,DewpointLowF,HumidityHigh,HumidityAvg,HumidityLow,PressureMaxIn,PressureMinIn,WindSpeedMaxMPH,WindSpeedAvgMPH,GustSpeedMaxMPH,PrecipitationSumIn
2013-4-1,53.0,40.3,24.0,-99.9,-99.9,-99.9,0,0,100,0.00,40.00,0,-999,0,0.00
2013-4-2,54.0,40.9,28.0,-99.9,-99.9,-99.9,0,0,100,0.00,40.00,0,-999,0,0.00
2013-4-3,55.0,41.8,21.0,-99.9,-99.9,-99.9,0,0,100,0.00,40.00,0,-999,0,0.00
2013-4-4,58.0,45.0,25.0,-99.9,-99.9,-99.9,0,0,100,0.00,40.00,0,-999,0,0.00
2013-4-5,47.0,42.0,35.0,-99.9,-99.9,-99.9,0,0,100,0.00,40.00,0,-999,0,0.00
2013-4-6,44.0,35.6,26.0,-99.9,-99.9,-99.9,0,0,100,0.00,40.00,0,-999,0,0.00
2013-4-7,40.0,33.1,28.0,-99.9,-99.9,-99.9,0,0,100,0.00,40.00,0,-999,0,0.00
2013-4-8,32.0,30.3,25.0,-99.9,-99.9,-99.9,0,0,100,0.00,40.00,0,-999,0,0.00
2013-4-9,32.0,23.1,18.0,-99.9,-99.9,-99.9,0,0,100,0.00,40.00,0,-999,0,0.00
2013-4-10,45.0,32.4,16.0,-99.9,-99.9,-99.9,0,0,100,0.00,40.00,0,-999,0,0.00
2013-4-11,44.0,38.3,34.0,-99.9,-99.9,-99.9,0,0,100,0.00,40.00,0,-999,0,0.00
2013-4-12,49.0,38.0,21.0,-99.9,-99.9,-99.9,0,0,100,0.00,40.00,0,-999,0,0.00
2013-4-13,41.0,36.3,29.0,-99.9,-99.9,-99.9,0,0,100,0.00,40.00,0,-999,0,0.00
2013-4-14,34.0,25.2,16.0,-99.9,-99.9,-99.9,0,0,100,0.00,40.00,0,-999,0,0.00
2013-4-15,29.0,25.6,18.0,-99.9,-99.9,-99.9,0,0,100,0.00,40.00,0,-999,0,0.00
2013-4-16,29.0,24.4,21.0,-99.9,-99.9,-99.9,0,0,100,0.00,40.00,0,-999,0,0.00
2013-4-17,30.0,24.2,17.0,-99.9,-99.9,-99.9,0,0,100,0.00,40.00,0,-999,0,0.00
2013-4-18,40.0,25.1,10.0,-99.9,-99.9,-99.9,0,0,100,0.00,40.00,0,-999,0,0.00
2013-4-19,35.0,30.1,23.0,-99.9,-99.9,-99.9,0,0,100,0.00,40.00,0,-999,0,0.00
2013-4-20,42.0,34.0,31.0,-99.9,-99.9,-99.9,0,0,100,0.00,40.00,0,-999,0,0.00
2013-4-21,48.0,38.3,25.0,-99.9,-99.9,-99.9,0,0,100,0.00,40.00,0,-999,0,0.00
2013-4-22,42.0,33.3,25.0,-99.9,-99.9,-99.9,0,0,100,0.00,40.00,0,-999,0,0.00
2013-4-23,40.0,30.1,13.0,-99.9,-99.9,-99.9,0,0,100,0.00,40.00,0,-999,0,0.00
2013-4-24,47.0,35.3,14.0,-99.9,-99.9,-99.9,0,0,100,0.00,40.00,0,-999,0,0.00
2013-4-25,53.0,36.8,16.0,-99.9,-99.9,-99.9,0,0,100,0.00,40.00,0,-999,0,0.00
2013-4-26,60.0,45.0,19.0,-99.9,-99.9,-99.9,0,0,100,0.00,40.00,0,-999,0,0.00
2013-4-27,62.0,47.0,22.0,-99.9,-99.9,-99.9,0,0,100,0.00,40.00,0,-999,0,0.00
2013-4-28,56.0,47.4,32.0,-99.9,-99.9,-99.9,0,0,100,0.00,40.00,0,-999,0,0.00
2013-4-29,51.0,45.5,33.0,-99.9,-99.9,-99.9,0,0,100,0.00,40.00,0,-999,0,0.00
2013-4-30,45.0,40.2,29.0,-99.9,-99.9,-99.9,0,0,100,0.00,40.00,0,-999,0,0.00